Regional Weather Roundup
Issued by NWS Albany, NY

Home | Current Version | Previous Version | Text Only | Print | Product List | Glossary On
Versions: 1 2 3 4 5 6 7 8 9 10 11 12 13 14 15 16 17 18 19 20 21 22 23 24 25 26 27 28 29 30 31 32 33 34 35 36 37 38 39 40 41 42 43 44 45 46 47 48 49 50
534
ASUS41 KALY 211710
RWRALY

NEW YORK STATE HOURLY WEATHER ROUNDUP
NATIONAL WEATHER SERVICE ALBANY NY
1200 PM EST SAT JAN 21 2017

NOTE: "FAIR" INDICATES FEW OR NO CLOUDS BELOW 12,000 FEET WITH NO
SIGNIFICANT WEATHER AND/OR NO OBSTRUCTIONS TO VISIBILITY.

NYZ032-033-038>043-046>054-057>066-NYZ062>081-082-084-211800-
EAST


CITY           SKY/WX    TMP DP  RH WIND       PRES   REMARKS
ALBANY         CLOUDY    43  38  82 S6        29.82F
GLENS FALLS    CLOUDY    40  37  89 SW6       29.78F FOG
POUGHKEEPSIE   CLOUDY    45  41  86 SW6       29.84F
NEWBURGH       PTSUNNY   46  45  93 SW9       29.85R
MONTGOMERY     MOSUNNY   50  45  83 SW8       29.82F
WHITE PLAINS   PTSUNNY   44  41  89 W8        29.85R FOG
ISLIP          CLOUDY    46  44  93 W6        29.85F FOG
NEW YORK CITY  PTSUNNY   48  42  80 W9        29.86F
CENTRAL PARK   CLOUDY    43  41  93 W7        29.89F
$$

NYZ005>009-017-018-044>046-055-056-211800-
CENTRAL


CITY           SKY/WX    TMP DP  RH WIND       PRES   REMARKS
FULTON         CLOUDY    47  44  90 CALM      29.78F
SYRACUSE       PTSUNNY   47  43  86 NE7       29.78F
ROME           CLOUDY    41  40  96 CALM      29.80F
ELMIRA         SUNNY     51  45  79 E3        29.78F
BINGHAMTON     FOG       42  42 100 SW7       29.78F VSB 1/2
MONTICELLO     CLOUDY    41  39  93 W7        29.84F VSB 1/2
$$

NYZ026>034-041>043-087-211800-
NORTH


CITY           SKY/WX    TMP DP  RH WIND       PRES   REMARKS
WATERTOWN      CLOUDY    40  40 100 SW8       29.78F FOG     WCI  34
FORT DRUM      NOT AVBL
OGDENSBURG     FOG       40  39  97 W5        29.76F VSB 1/2
MASSENA        CLOUDY    40  39  97 SW7       29.77F
SARANAC LAKE   CLOUDY    39  37  92 SW7       29.70F FOG     WCI  34
PLATTSBURGH    CLOUDY    38  36  92 CALM      29.74F
$$

NYZ001>004-010>016-019>021-085-211800-
WEST


CITY           SKY/WX    TMP DP  RH WIND       PRES   REMARKS
NIAGARA FALLS  FOG       48  45  89 E3        29.75F VSB 1/2
BUFFALO        CLOUDY    53  47  79 CALM      29.75F
DUNKIRK        CLOUDY    54  49  83 S13       29.74F
JAMESTOWN      CLOUDY    48  46  93 S6        29.76F
WELLSVILLE     SUNNY     54  47  77 SW9       29.78F
ROCHESTER      CLOUDY    48  46  93 CALM      29.77F
PENN YAN       SUNNY     55  45  68 S10       29.77F
$$

             KEY
       WCI = WIND CHILL INDEX
       VSB = VISIBILITY
       HX  = HEAT INDEX
$$




USA.gov is the U.S. government's official web portal to all federal, state and local government web resources and services.